Time,TemperatureF,DewpointF,PressureIn,WindDirection,WindDirectionDegrees,WindSpeedMPH,WindSpeedGustMPH,Humidity,HourlyPrecipIn,Conditions,Clouds,dailyrainin,SoftwareType,DateUTC
2013-03-01 00:00:00,35.6,23.9,29.72,South,175,4.0,4.0,62,0.00,,,0.00,Wunderground v.1.15,2013-03-01 07:00:00,
2013-03-01 00:05:00,35.8,23.3,29.71,South,176,4.0,4.0,60,0.00,,,0.00,Wunderground v.1.15,2013-03-01 07:05:00,
2013-03-01 00:11:00,35.7,23.9,29.71,South,177,2.0,6.0,62,0.00,,,0.00,Wunderground v.1.15,2013-03-01 07:11:00,
2013-03-01 00:17:00,36.2,24.8,29.72,WNW,296,5.0,9.0,63,0.00,,,0.00,Wunderground v.1.15,2013-03-01 07:17:00,
2013-03-01 00:22:00,36.1,23.9,29.71,WNW,300,6.0,7.0,61,0.00,,,0.00,Wunderground v.1.15,2013-03-01 07:22:00,
2013-03-01 00:28:00,35.2,23.5,29.71,WNW,300,5.0,7.0,62,0.00,,,0.00,Wunderground v.1.15,2013-03-01 07:28:00,
2013-03-01 00:33:00,34.3,23.7,29.70,WNW,300,3.0,5.0,65,0.00,,,0.00,Wunderground v.1.15,2013-03-01 07:33:00,
2013-03-01 00:40:00,33.9,23.4,29.71,WNW,300,2.0,2.0,65,0.00,,,0.00,Wunderground v.1.15,2013-03-01 07:40:00,
2013-03-01 00:45:00,33.7,23.9,29.70,WNW,300,2.0,3.0,67,0.00,,,0.00,Wunderground v.1.15,2013-03-01 07:45:00,
2013-03-01 00:50:00,33.7,24.3,29.70,WNW,300,2.0,3.0,68,0.00,,,0.00,Wunderground v.1.15,2013-03-01 07:50:00,
2013-03-01 00:56:00,33.7,23.9,29.71,WNW,300,2.0,3.0,67,0.00,,,0.00,Wunderground v.1.15,2013-03-01 07:56:00,
2013-03-01 01:02:00,33.4,23.6,29.71,WNW,300,1.0,2.0,67,0.00,,,0.00,Wunderground v.1.15,2013-03-01 08:02:00,
2013-03-01 01:08:00,33.1,23.7,29.70,WNW,300,0.0,2.0,68,0.00,,,0.00,Wunderground v.1.15,2013-03-01 08:08:00,
2013-03-01 01:14:00,32.9,23.5,29.70,WNW,300,0.0,0.0,68,0.00,,,0.00,Wunderground v.1.15,2013-03-01 08:14:00,
2013-03-01 01:19:00,32.6,23.2,29.70,WNW,300,0.0,1.0,68,0.00,,,0.00,Wunderground v.1.15,2013-03-01 08:19:00,
2013-03-01 01:25:00,32.4,23.4,29.70,WNW,300,0.0,3.0,69,0.00,,,0.00,Wunderground v.1.15,2013-03-01 08:25:00,
2013-03-01 01:30:00,32.1,23.4,29.70,WNW,300,0.0,0.0,70,0.00,,,0.00,Wunderground v.1.15,2013-03-01 08:30:00,
2013-03-01 01:35:00,32.1,23.4,29.70,WNW,300,0.0,4.0,70,0.00,,,0.00,Wunderground v.1.15,2013-03-01 08:35:00,
2013-03-01 01:40:00,32.5,24.1,29.70,NW,315,2.0,3.0,71,0.00,,,0.00,Wunderground v.1.15,2013-03-01 08:40:00,
2013-03-01 01:47:00,34.4,25.3,29.69,WNW,288,2.0,3.0,69,0.00,,,0.00,Wunderground v.1.15,2013-03-01 08:47:00,
2013-03-01 01:52:00,35.4,25.5,29.69,WNW,288,1.0,3.0,67,0.00,,,0.00,Wunderground v.1.15,2013-03-01 08:52:00,
2013-03-01 01:57:00,36.7,26.4,29.69,West,280,1.0,7.0,66,0.00,,,0.00,Wunderground v.1.15,2013-03-01 08:57:00,
2013-03-01 02:03:00,39.6,28.0,29.69,WNW,282,5.0,10.0,63,0.00,,,0.00,Wunderground v.1.15,2013-03-01 09:03:00,
2013-03-01 02:09:00,41.8,28.1,29.69,West,274,7.0,7.0,58,0.00,,,0.00,Wunderground v.1.15,2013-03-01 09:09:00,
2013-03-01 02:15:00,43.0,27.9,29.69,WNW,284,7.0,8.0,55,0.00,,,0.00,Wunderground v.1.15,2013-03-01 09:15:00,
2013-03-01 02:20:00,43.1,27.6,29.68,WNW,284,4.0,4.0,54,0.00,,,0.00,Wunderground v.1.15,2013-03-01 09:20:00,
2013-03-01 02:25:00,43.1,27.1,29.68,WNW,286,1.0,4.0,53,0.00,,,0.00,Wunderground v.1.15,2013-03-01 09:25:00,
2013-03-01 02:31:00,43.0,27.0,29.68,WNW,286,1.0,2.0,53,0.00,,,0.00,Wunderground v.1.15,2013-03-01 09:31:00,
2013-03-01 02:37:00,42.7,27.2,29.69,West,281,2.0,3.0,54,0.00,,,0.00,Wunderground v.1.15,2013-03-01 09:37:00,
2013-03-01 02:42:00,41.7,26.7,29.68,South,170,3.0,4.0,55,0.00,,,0.00,Wunderground v.1.15,2013-03-01 09:42:00,
2013-03-01 02:47:00,41.1,26.6,29.67,South,170,3.0,4.0,56,0.00,,,0.00,Wunderground v.1.15,2013-03-01 09:47:00,
2013-03-01 02:53:00,41.1,27.0,29.68,South,175,4.0,6.0,57,0.00,,,0.00,Wunderground v.1.15,2013-03-01 09:53:00,
2013-03-01 02:58:00,41.3,27.2,29.68,South,169,5.0,7.0,57,0.00,,,0.00,Wunderground v.1.15,2013-03-01 09:58:00,
2013-03-01 03:04:00,42.0,27.4,29.67,South,169,4.0,5.0,56,0.00,,,0.00,Wunderground v.1.15,2013-03-01 10:04:00,
2013-03-01 03:09:00,42.8,27.3,29.67,South,169,2.0,2.0,54,0.00,,,0.00,Wunderground v.1.15,2013-03-01 10:09:00,
2013-03-01 03:14:00,43.0,27.5,29.67,South,169,1.0,4.0,54,0.00,,,0.00,Wunderground v.1.15,2013-03-01 10:14:00,
2013-03-01 03:19:00,42.5,27.5,29.67,South,170,1.0,1.0,55,0.00,,,0.00,Wunderground v.1.15,2013-03-01 10:19:00,
2013-03-01 03:25:00,42.1,27.1,29.67,South,170,1.0,2.0,55,0.00,,,0.00,Wunderground v.1.15,2013-03-01 10:25:00,
2013-03-01 03:32:00,41.6,27.1,29.67,South,170,2.0,4.0,56,0.00,,,0.00,Wunderground v.1.15,2013-03-01 10:32:00,
2013-03-01 03:37:00,41.5,27.0,29.68,South,170,1.0,4.0,56,0.00,,,0.00,Wunderground v.1.15,2013-03-01 10:37:00,
2013-03-01 03:42:00,41.1,26.6,29.67,South,170,1.0,2.0,56,0.00,,,0.00,Wunderground v.1.15,2013-03-01 10:42:00,
2013-03-01 03:47:00,40.7,26.6,29.67,South,170,1.0,2.0,57,0.00,,,0.00,Wunderground v.1.15,2013-03-01 10:47:00,
2013-03-01 03:53:00,40.5,26.9,29.67,South,170,0.0,2.0,58,0.00,,,0.00,Wunderground v.1.15,2013-03-01 10:53:00,
2013-03-01 03:59:00,40.0,26.8,29.68,South,170,1.0,3.0,59,0.00,,,0.00,Wunderground v.1.15,2013-03-01 10:59:00,
2013-03-01 04:05:00,39.5,26.8,29.68,South,170,1.0,3.0,60,0.00,,,0.00,Wunderground v.1.15,2013-03-01 11:05:00,
2013-03-01 04:12:00,39.8,27.0,29.68,NNW,336,1.0,4.0,60,0.00,,,0.00,Wunderground v.1.15,2013-03-01 11:12:00,
2013-03-01 04:17:00,41.6,27.9,29.68,WNW,282,2.0,8.0,58,0.00,,,0.00,Wunderground v.1.15,2013-03-01 11:17:00,
2013-03-01 04:23:00,42.3,27.7,29.68,WNW,282,1.0,2.0,56,0.00,,,0.00,Wunderground v.1.15,2013-03-01 11:23:00,
2013-03-01 04:29:00,43.1,28.0,29.68,ENE,69,1.0,1.0,55,0.00,,,0.00,Wunderground v.1.15,2013-03-01 11:29:00,
2013-03-01 04:35:00,44.5,28.9,29.68,NNE,28,4.0,8.0,54,0.00,,,0.00,Wunderground v.1.15,2013-03-01 11:35:00,
2013-03-01 04:42:00,46.2,28.6,29.68,NW,306,4.0,4.0,50,0.00,,,0.00,Wunderground v.1.15,2013-03-01 11:42:00,
2013-03-01 04:47:00,46.8,28.6,29.67,WNW,286,4.0,4.0,49,0.00,,,0.00,Wunderground v.1.15,2013-03-01 11:47:00,
2013-03-01 04:52:00,46.9,28.7,29.67,WNW,286,1.0,4.0,49,0.00,,,0.00,Wunderground v.1.15,2013-03-01 11:52:00,
2013-03-01 04:58:00,46.1,28.5,29.67,WNW,284,2.0,4.0,50,0.00,,,0.00,Wunderground v.1.15,2013-03-01 11:58:00,
2013-03-01 05:04:00,45.1,27.6,29.68,WNW,284,2.0,4.0,50,0.00,,,0.00,Wunderground v.1.15,2013-03-01 12:04:00,
2013-03-01 05:10:00,44.1,27.6,29.67,WNW,284,1.0,2.0,52,0.00,,,0.00,Wunderground v.1.15,2013-03-01 12:10:00,
2013-03-01 05:17:00,43.1,27.1,29.67,WNW,284,1.0,2.0,53,0.00,,,0.00,Wunderground v.1.15,2013-03-01 12:17:00,
2013-03-01 05:22:00,42.4,27.4,29.68,WNW,284,0.0,2.0,55,0.00,,,0.00,Wunderground v.1.15,2013-03-01 12:22:00,
2013-03-01 05:27:00,41.4,26.9,29.67,South,181,2.0,6.0,56,0.00,,,0.00,Wunderground v.1.15,2013-03-01 12:27:00,
2013-03-01 05:32:00,40.5,26.9,29.67,SSE,165,4.0,4.0,58,0.00,,,0.00,Wunderground v.1.15,2013-03-01 12:32:00,
2013-03-01 05:37:00,40.0,26.8,29.67,SSE,165,3.0,4.0,59,0.00,,,0.00,Wunderground v.1.15,2013-03-01 12:37:00,
2013-03-01 05:42:00,39.6,26.8,29.67,WNW,284,3.0,6.0,60,0.00,,,0.00,Wunderground v.1.15,2013-03-01 12:42:00,
2013-03-01 05:47:00,39.5,27.2,29.68,WNW,285,3.0,6.0,61,0.00,,,0.00,Wunderground v.1.15,2013-03-01 12:47:00,
2013-03-01 05:52:00,40.2,27.4,29.68,SE,134,3.0,5.0,60,0.00,,,0.00,Wunderground v.1.15,2013-03-01 12:52:00,
2013-03-01 05:57:00,40.5,26.9,29.68,SE,144,4.0,5.0,58,0.00,,,0.00,Wunderground v.1.15,2013-03-01 12:57:00,
2013-03-01 06:03:00,40.2,27.0,29.69,SSE,153,4.0,4.0,59,0.00,,,0.00,Wunderground v.1.15,2013-03-01 13:03:00,
2013-03-01 06:09:00,40.2,27.0,29.67,ESE,122,3.0,7.0,59,0.00,,,0.00,Wunderground v.1.15,2013-03-01 13:09:00,
2013-03-01 06:14:00,41.1,27.4,29.67,WSW,240,4.0,7.0,58,0.00,,,0.00,Wunderground v.1.15,2013-03-01 13:14:00,
2013-03-01 06:20:00,41.3,27.6,29.67,WSW,239,2.0,3.0,58,0.00,,,0.00,Wunderground v.1.15,2013-03-01 13:20:00,
2013-03-01 06:25:00,41.3,28.9,29.67,WSW,239,1.0,3.0,61,0.00,,,0.00,Wunderground v.1.15,2013-03-01 13:25:00,
2013-03-01 06:32:00,41.5,27.8,29.67,WSW,239,2.0,3.0,58,0.00,,,0.00,Wunderground v.1.15,2013-03-01 13:32:00,
2013-03-01 06:37:00,41.8,28.9,29.67,SSW,199,3.0,7.0,60,0.00,,,0.00,Wunderground v.1.15,2013-03-01 13:37:00,
2013-03-01 06:42:00,42.4,29.1,29.67,SSW,200,4.0,4.0,59,0.00,,,0.00,Wunderground v.1.15,2013-03-01 13:42:00,
2013-03-01 06:48:00,42.7,29.4,29.67,SW,235,3.0,5.0,59,0.00,,,0.00,Wunderground v.1.15,2013-03-01 13:48:00,
2013-03-01 06:53:00,43.1,29.3,29.67,WSW,243,3.0,6.0,58,0.00,,,0.00,Wunderground v.1.15,2013-03-01 13:53:00,
2013-03-01 06:59:00,43.8,29.1,29.67,South,188,2.0,4.0,56,0.00,,,0.00,Wunderground v.1.15,2013-03-01 13:59:00,
2013-03-01 07:05:00,44.1,28.9,29.66,South,190,3.0,5.0,55,0.00,,,0.00,Wunderground v.1.15,2013-03-01 14:05:00,
2013-03-01 07:12:00,43.7,29.0,29.66,SSE,162,3.0,4.0,56,0.00,,,0.00,Wunderground v.1.15,2013-03-01 14:12:00,
2013-03-01 07:17:00,44.1,29.4,29.66,South,188,3.0,8.0,56,0.00,,,0.00,Wunderground v.1.15,2013-03-01 14:17:00,
2013-03-01 07:23:00,44.7,30.0,29.66,South,186,4.0,7.0,56,0.00,,,0.00,Wunderground v.1.15,2013-03-01 14:23:00,
2013-03-01 07:28:00,44.9,29.7,29.65,SSE,161,4.0,7.0,55,0.00,,,0.00,Wunderground v.1.15,2013-03-01 14:28:00,
2013-03-01 07:33:00,45.1,29.9,29.66,SSE,161,3.0,4.0,55,0.00,,,0.00,Wunderground v.1.15,2013-03-01 14:33:00,
2013-03-01 07:38:00,45.0,29.3,29.66,ESE,117,2.0,4.0,54,0.00,,,0.00,Wunderground v.1.15,2013-03-01 14:38:00,
2013-03-01 07:44:00,44.8,30.5,29.66,SSE,148,4.0,5.0,57,0.00,,,0.00,Wunderground v.1.15,2013-03-01 14:44:00,
2013-03-01 07:49:00,45.3,30.1,29.66,East,96,4.0,4.0,55,0.00,,,0.00,Wunderground v.1.15,2013-03-01 14:49:00,
2013-03-01 07:54:00,45.5,30.3,29.66,ENE,68,3.0,4.0,55,0.00,,,0.00,Wunderground v.1.15,2013-03-01 14:54:00,
2013-03-01 07:59:00,45.8,30.5,29.66,SW,225,2.0,7.0,55,0.00,,,0.00,Wunderground v.1.15,2013-03-01 14:59:00,
2013-03-01 08:05:00,47.2,30.9,29.65,SSW,199,4.0,11.0,53,0.00,,,0.00,Wunderground v.1.15,2013-03-01 15:05:00,
2013-03-01 08:10:00,48.5,30.7,29.64,WSW,240,8.0,12.0,50,0.00,,,0.00,Wunderground v.1.15,2013-03-01 15:10:00,
2013-03-01 08:15:00,49.4,30.5,29.65,West,273,11.0,15.0,48,0.00,,,0.00,Wunderground v.1.15,2013-03-01 15:15:00,
2013-03-01 08:20:00,49.8,30.4,29.65,WSW,257,12.0,12.0,47,0.00,,,0.00,Wunderground v.1.15,2013-03-01 15:20:00,
2013-03-01 08:26:00,50.0,30.0,29.65,WSW,256,12.0,17.0,46,0.00,,,0.00,Wunderground v.1.15,2013-03-01 15:26:00,
2013-03-01 08:32:00,50.7,30.1,29.64,WSW,239,12.0,12.0,45,0.00,,,0.00,Wunderground v.1.15,2013-03-01 15:32:00,
2013-03-01 08:37:00,50.3,30.3,29.63,SW,231,8.0,12.0,46,0.00,,,0.00,Wunderground v.1.15,2013-03-01 15:37:00,
2013-03-01 08:43:00,49.9,29.9,29.64,West,260,5.0,7.0,46,0.00,,,0.00,Wunderground v.1.15,2013-03-01 15:43:00,
2013-03-01 08:49:00,50.0,30.0,29.64,West,261,4.0,7.0,46,0.00,,,0.00,Wunderground v.1.15,2013-03-01 15:49:00,
2013-03-01 08:54:00,49.9,29.9,29.64,West,261,2.0,4.0,46,0.00,,,0.00,Wunderground v.1.15,2013-03-01 15:54:00,
2013-03-01 08:59:00,49.9,29.9,29.64,SSE,158,2.0,7.0,46,0.00,,,0.00,Wunderground v.1.15,2013-03-01 15:59:00,
2013-03-01 09:05:00,50.4,29.8,29.64,SW,225,4.0,14.0,45,0.00,,,0.00,Wunderground v.1.15,2013-03-01 16:05:00,
2013-03-01 09:10:00,50.9,29.7,29.65,SW,225,4.0,6.0,44,0.00,,,0.00,Wunderground v.1.15,2013-03-01 16:10:00,
2013-03-01 09:17:00,50.8,29.6,29.65,NNE,15,3.0,6.0,44,0.00,,,0.00,Wunderground v.1.15,2013-03-01 16:17:00,
2013-03-01 09:22:00,50.6,29.5,29.64,ENE,66,1.0,2.0,44,0.00,,,0.00,Wunderground v.1.15,2013-03-01 16:22:00,
2013-03-01 09:27:00,50.7,30.1,29.65,NW,325,2.0,3.0,45,0.00,,,0.00,Wunderground v.1.15,2013-03-01 16:27:00,
2013-03-01 09:33:00,50.1,30.1,29.64,NNW,331,2.0,9.0,46,0.00,,,0.00,Wunderground v.1.15,2013-03-01 16:33:00,
2013-03-01 09:39:00,49.7,29.7,29.64,NNW,329,4.0,4.0,46,0.00,,,0.00,Wunderground v.1.15,2013-03-01 16:39:00,
2013-03-01 09:44:00,50.5,29.9,29.63,West,269,9.0,18.0,45,0.00,,,0.00,Wunderground v.1.15,2013-03-01 16:44:00,
2013-03-01 09:49:00,51.2,30.0,29.62,West,260,16.0,20.0,44,0.00,,,0.00,Wunderground v.1.15,2013-03-01 16:49:00,
2013-03-01 09:55:00,51.3,30.1,29.62,West,271,20.0,21.0,44,0.00,,,0.00,Wunderground v.1.15,2013-03-01 16:55:00,
2013-03-01 10:00:00,51.5,30.3,29.62,West,271,19.0,27.0,44,0.00,,,0.00,Wunderground v.1.15,2013-03-01 17:00:00,
2013-03-01 10:07:00,51.5,30.3,29.62,SW,232,21.0,27.0,44,0.00,,,0.00,Wunderground v.1.15,2013-03-01 17:07:00,
2013-03-01 10:12:00,51.5,30.3,29.61,WSW,255,19.0,21.0,44,0.00,,,0.00,Wunderground v.1.15,2013-03-01 17:12:00,
2013-03-01 10:17:00,51.3,30.7,29.63,West,271,17.0,21.0,45,0.00,,,0.00,Wunderground v.1.15,2013-03-01 17:17:00,
2013-03-01 10:22:00,51.1,31.0,29.64,West,264,16.0,17.0,46,0.00,,,0.00,Wunderground v.1.15,2013-03-01 17:22:00,
2013-03-01 10:27:00,51.0,30.9,29.64,WNW,293,15.0,17.0,46,0.00,,,0.00,Wunderground v.1.15,2013-03-01 17:27:00,
2013-03-01 10:32:00,51.1,31.0,29.65,SW,233,14.0,21.0,46,0.00,,,0.00,Wunderground v.1.15,2013-03-01 17:32:00,
2013-03-01 10:37:00,51.2,31.1,29.65,West,273,14.0,22.0,46,0.00,,,0.00,Wunderground v.1.15,2013-03-01 17:37:00,
2013-03-01 10:42:00,51.3,31.2,29.64,West,269,14.0,19.0,46,0.00,,,0.00,Wunderground v.1.15,2013-03-01 17:42:00,
2013-03-01 10:48:00,51.4,30.7,29.64,West,271,16.0,19.0,45,0.00,,,0.00,Wunderground v.1.15,2013-03-01 17:48:00,
2013-03-01 10:53:00,51.5,30.8,29.63,West,269,16.0,20.0,45,0.00,,,0.00,Wunderground v.1.15,2013-03-01 17:53:00,
2013-03-01 10:58:00,51.7,31.0,29.62,WSW,258,18.0,23.0,45,0.00,,,0.00,Wunderground v.1.15,2013-03-01 17:58:00,
2013-03-01 11:04:00,52.0,30.7,29.62,West,267,21.0,30.0,44,0.00,,,0.00,Wunderground v.1.15,2013-03-01 18:04:00,
2013-03-01 11:10:00,52.2,30.9,29.61,West,263,22.0,26.0,44,0.00,,,0.00,Wunderground v.1.15,2013-03-01 18:10:00,
2013-03-01 11:15:00,52.3,31.0,29.62,WSW,257,21.0,27.0,44,0.00,,,0.00,Wunderground v.1.15,2013-03-01 18:15:00,
2013-03-01 11:22:00,52.2,30.9,29.62,WSW,242,19.0,26.0,44,0.00,,,0.00,Wunderground v.1.15,2013-03-01 18:22:00,
2013-03-01 11:27:00,52.1,30.8,29.62,WSW,254,18.0,26.0,44,0.00,,,0.00,Wunderground v.1.15,2013-03-01 18:27:00,
2013-03-01 11:33:00,52.2,30.9,29.61,WSW,246,19.0,25.0,44,0.00,,,0.00,Wunderground v.1.15,2013-03-01 18:33:00,
2013-03-01 11:38:00,52.5,31.2,29.62,West,265,16.0,25.0,44,0.00,,,0.00,Wunderground v.1.15,2013-03-01 18:38:00,
2013-03-01 11:43:00,52.5,31.2,29.64,WNW,302,12.0,16.0,44,0.00,,,0.00,Wunderground v.1.15,2013-03-01 18:43:00,
2013-03-01 11:48:00,52.5,31.2,29.64,SW,234,8.0,16.0,44,0.00,,,0.00,Wunderground v.1.15,2013-03-01 18:48:00,
2013-03-01 11:53:00,52.6,31.3,29.65,WSW,237,5.0,8.0,44,0.00,,,0.00,Wunderground v.1.15,2013-03-01 18:53:00,
2013-03-01 11:59:00,52.6,31.3,29.66,South,175,5.0,9.0,44,0.00,,,0.00,Wunderground v.1.15,2013-03-01 18:59:00,
2013-03-01 12:05:00,52.6,30.7,29.65,East,83,5.0,9.0,43,0.00,,,0.00,Wunderground v.1.15,2013-03-01 19:05:00,
2013-03-01 12:10:00,52.7,30.8,29.65,SW,232,3.0,5.0,43,0.00,,,0.00,Wunderground v.1.15,2013-03-01 19:10:00,
2013-03-01 12:17:00,52.7,30.8,29.65,South,185,3.0,8.0,43,0.00,,,0.00,Wunderground v.1.15,2013-03-01 19:17:00,
2013-03-01 12:22:00,52.7,30.8,29.65,SSE,163,3.0,5.0,43,0.00,,,0.00,Wunderground v.1.15,2013-03-01 19:22:00,
2013-03-01 12:28:00,52.8,30.9,29.65,SSE,157,4.0,6.0,43,0.00,,,0.00,Wunderground v.1.15,2013-03-01 19:28:00,
2013-03-01 12:33:00,52.9,31.0,29.65,SSE,157,4.0,4.0,43,0.00,,,0.00,Wunderground v.1.15,2013-03-01 19:33:00,
2013-03-01 12:39:00,52.7,31.4,29.66,WSW,248,6.0,7.0,44,0.00,,,0.00,Wunderground v.1.15,2013-03-01 19:39:00,
2013-03-01 12:44:00,52.5,31.2,29.66,WSW,240,7.0,7.0,44,0.00,,,0.00,Wunderground v.1.15,2013-03-01 19:44:00,
2013-03-01 12:49:00,52.4,31.7,29.65,WSW,250,7.0,11.0,45,0.00,,,0.00,Wunderground v.1.15,2013-03-01 19:49:00,
2013-03-01 12:55:00,52.2,31.5,29.63,SSW,204,8.0,11.0,45,0.00,,,0.00,Wunderground v.1.15,2013-03-01 19:55:00,
2013-03-01 13:02:00,52.1,31.4,29.63,WSW,246,9.0,11.0,45,0.00,,,0.00,Wunderground v.1.15,2013-03-01 20:02:00,
2013-03-01 13:07:00,52.2,32.0,29.63,South,190,9.0,11.0,46,0.00,,,0.00,Wunderground v.1.15,2013-03-01 20:07:00,
2013-03-01 13:12:00,52.1,31.9,29.63,SSW,207,8.0,9.0,46,0.00,,,0.00,Wunderground v.1.15,2013-03-01 20:12:00,
2013-03-01 13:17:00,52.0,31.3,29.64,SSW,198,7.0,10.0,45,0.00,,,0.00,Wunderground v.1.15,2013-03-01 20:17:00,
2013-03-01 13:24:00,51.9,31.7,29.65,SW,216,6.0,6.0,46,0.00,,,0.00,Wunderground v.1.15,2013-03-01 20:24:00,
2013-03-01 13:29:00,51.8,31.7,29.65,SW,217,6.0,8.0,46,0.00,,,0.00,Wunderground v.1.15,2013-03-01 20:29:00,
2013-03-01 13:35:00,51.8,32.2,29.65,SW,223,8.0,10.0,47,0.00,,,0.00,Wunderground v.1.15,2013-03-01 20:35:00,
2013-03-01 13:40:00,51.8,32.2,29.65,SSW,198,8.0,13.0,47,0.00,,,0.00,Wunderground v.1.15,2013-03-01 20:40:00,
2013-03-01 13:47:00,51.9,32.3,29.65,SW,219,8.0,13.0,47,0.00,,,0.00,Wunderground v.1.15,2013-03-01 20:47:00,
2013-03-01 13:52:00,52.0,32.4,29.64,SSW,200,9.0,14.0,47,0.00,,,0.00,Wunderground v.1.15,2013-03-01 20:52:00,
2013-03-01 13:58:00,52.0,32.4,29.63,WSW,237,10.0,14.0,47,0.00,,,0.00,Wunderground v.1.15,2013-03-01 20:58:00,
2013-03-01 14:04:00,52.3,32.6,29.64,SSW,201,9.0,15.0,47,0.00,,,0.00,Wunderground v.1.15,2013-03-01 21:04:00,
2013-03-01 14:11:00,52.4,32.7,29.64,SW,234,11.0,12.0,47,0.00,,,0.00,Wunderground v.1.15,2013-03-01 21:11:00,
2013-03-01 14:17:00,52.6,32.9,29.63,WSW,245,11.0,18.0,47,0.00,,,0.00,Wunderground v.1.15,2013-03-01 21:17:00,
2013-03-01 14:22:00,52.7,32.5,29.63,SW,223,11.0,18.0,46,0.00,,,0.00,Wunderground v.1.15,2013-03-01 21:22:00,
2013-03-01 14:27:00,52.7,32.5,29.63,SW,234,11.0,18.0,46,0.00,,,0.00,Wunderground v.1.15,2013-03-01 21:27:00,
2013-03-01 14:32:00,52.7,32.5,29.62,WSW,240,10.0,13.0,46,0.00,,,0.00,Wunderground v.1.15,2013-03-01 21:32:00,
2013-03-01 14:38:00,52.8,32.0,29.62,WSW,243,11.0,15.0,45,0.00,,,0.00,Wunderground v.1.15,2013-03-01 21:38:00,
2013-03-01 14:43:00,52.8,32.0,29.62,WSW,249,11.0,16.0,45,0.00,,,0.00,Wunderground v.1.15,2013-03-01 21:43:00,
2013-03-01 14:49:00,53.0,31.6,29.63,WSW,238,11.0,11.0,44,0.00,,,0.00,Wunderground v.1.15,2013-03-01 21:49:00,
2013-03-01 14:55:00,53.0,31.6,29.63,SW,225,10.0,12.0,44,0.00,,,0.00,Wunderground v.1.15,2013-03-01 21:55:00,
2013-03-01 15:00:00,52.7,31.9,29.63,SSW,203,8.0,10.0,45,0.00,,,0.00,Wunderground v.1.15,2013-03-01 22:00:00,
2013-03-01 15:07:00,52.5,31.8,29.63,SW,228,7.0,12.0,45,0.00,,,0.00,Wunderground v.1.15,2013-03-01 22:07:00,
2013-03-01 15:12:00,52.4,32.2,29.63,SW,218,7.0,7.0,46,0.00,,,0.00,Wunderground v.1.15,2013-03-01 22:12:00,
2013-03-01 15:17:00,52.5,32.3,29.63,SW,225,5.0,10.0,46,0.00,,,0.00,Wunderground v.1.15,2013-03-01 22:17:00,
2013-03-01 15:23:00,52.6,31.8,29.62,SSW,192,5.0,8.0,45,0.00,,,0.00,Wunderground v.1.15,2013-03-01 22:23:00,
2013-03-01 15:28:00,52.7,31.9,29.62,WSW,246,6.0,8.0,45,0.00,,,0.00,Wunderground v.1.15,2013-03-01 22:28:00,
2013-03-01 15:34:00,53.0,31.6,29.63,SW,234,7.0,10.0,44,0.00,,,0.00,Wunderground v.1.15,2013-03-01 22:34:00,
2013-03-01 15:39:00,53.2,31.8,29.63,West,266,9.0,9.0,44,0.00,,,0.00,Wunderground v.1.15,2013-03-01 22:39:00,
2013-03-01 15:44:00,53.4,31.4,29.63,WSW,257,8.0,12.0,43,0.00,,,0.00,Wunderground v.1.15,2013-03-01 22:44:00,
2013-03-01 15:49:00,53.5,31.5,29.63,WSW,247,8.0,8.0,43,0.00,,,0.00,Wunderground v.1.15,2013-03-01 22:49:00,
2013-03-01 15:55:00,53.5,32.1,29.62,SW,226,6.0,8.0,44,0.00,,,0.00,Wunderground v.1.15,2013-03-01 22:55:00,
2013-03-01 16:00:00,53.4,32.0,29.63,SW,217,5.0,7.0,44,0.00,,,0.00,Wunderground v.1.15,2013-03-01 23:00:00,
2013-03-01 16:06:00,53.5,31.5,29.63,SW,217,3.0,7.0,43,0.00,,,0.00,Wunderground v.1.15,2013-03-01 23:06:00,
2013-03-01 16:12:00,53.6,31.6,29.63,SW,217,3.0,5.0,43,0.00,,,0.00,Wunderground v.1.15,2013-03-01 23:12:00,
2013-03-01 16:17:00,53.6,31.6,29.63,SW,232,4.0,5.0,43,0.00,,,0.00,Wunderground v.1.15,2013-03-01 23:17:00,
2013-03-01 16:23:00,53.6,31.6,29.63,SW,223,4.0,6.0,43,0.00,,,0.00,Wunderground v.1.15,2013-03-01 23:23:00,
2013-03-01 16:28:00,53.6,31.6,29.63,SSW,195,4.0,6.0,43,0.00,,,0.00,Wunderground v.1.15,2013-03-01 23:28:00,
2013-03-01 16:34:00,53.6,31.0,29.64,SW,230,4.0,7.0,42,0.00,,,0.00,Wunderground v.1.15,2013-03-01 23:34:00,
2013-03-01 16:39:00,53.7,31.1,29.64,SSW,212,4.0,6.0,42,0.00,,,0.00,Wunderground v.1.15,2013-03-01 23:39:00,
2013-03-01 16:44:00,53.8,31.2,29.64,WSW,242,4.0,10.0,42,0.00,,,0.00,Wunderground v.1.15,2013-03-01 23:44:00,
2013-03-01 16:49:00,54.3,31.1,29.64,WSW,255,7.0,14.0,41,0.00,,,0.00,Wunderground v.1.15,2013-03-01 23:49:00,
2013-03-01 16:56:00,54.6,31.3,29.63,WSW,248,12.0,18.0,41,0.00,,,0.00,Wunderground v.1.15,2013-03-01 23:56:00,
2013-03-01 17:02:00,54.5,31.9,29.63,West,267,13.0,14.0,42,0.00,,,0.00,Wunderground v.1.15,2013-03-02 00:02:00,
2013-03-01 17:07:00,54.5,31.3,29.63,West,264,13.0,17.0,41,0.00,,,0.00,Wunderground v.1.15,2013-03-02 00:07:00,
2013-03-01 17:12:00,54.6,31.3,29.62,West,278,13.0,14.0,41,0.00,,,0.00,Wunderground v.1.15,2013-03-02 00:12:00,
2013-03-01 17:17:00,54.7,30.8,29.62,West,269,11.0,14.0,40,0.00,,,0.00,Wunderground v.1.15,2013-03-02 00:17:00,
2013-03-01 17:22:00,54.7,30.8,29.62,WNW,293,11.0,12.0,40,0.00,,,0.00,Wunderground v.1.15,2013-03-02 00:22:00,
2013-03-01 17:28:00,54.2,30.4,29.63,WNW,284,8.0,12.0,40,0.00,,,0.00,Wunderground v.1.15,2013-03-02 00:28:00,
2013-03-01 17:33:00,53.6,30.4,29.63,SW,234,5.0,7.0,41,0.00,,,0.00,Wunderground v.1.15,2013-03-02 00:33:00,
2013-03-01 17:39:00,53.4,30.3,29.63,SW,222,4.0,4.0,41,0.00,,,0.00,Wunderground v.1.15,2013-03-02 00:39:00,
2013-03-01 17:44:00,53.3,30.8,29.63,SW,224,4.0,10.0,42,0.00,,,0.00,Wunderground v.1.15,2013-03-02 00:44:00,
2013-03-01 17:49:00,52.8,30.3,29.63,SSW,205,6.0,7.0,42,0.00,,,0.00,Wunderground v.1.15,2013-03-02 00:49:00,
2013-03-01 17:54:00,52.1,30.3,29.62,SW,223,6.0,8.0,43,0.00,,,0.00,Wunderground v.1.15,2013-03-02 00:54:00,
2013-03-01 17:59:00,51.3,30.1,29.62,SW,234,6.0,7.0,44,0.00,,,0.00,Wunderground v.1.15,2013-03-02 00:59:00,
2013-03-01 18:04:00,50.9,29.7,29.62,SW,233,6.0,8.0,44,0.00,,,0.00,Wunderground v.1.15,2013-03-02 01:04:00,
2013-03-01 18:10:00,50.8,29.6,29.62,SW,226,7.0,9.0,44,0.00,,,0.00,Wunderground v.1.15,2013-03-02 01:10:00,
2013-03-01 18:15:00,50.5,29.9,29.62,WSW,252,7.0,10.0,45,0.00,,,0.00,Wunderground v.1.15,2013-03-02 01:15:00,
2013-03-01 18:20:00,49.9,29.4,29.62,West,259,9.0,13.0,45,0.00,,,0.00,Wunderground v.1.15,2013-03-02 01:20:00,
2013-03-01 18:27:00,49.5,29.6,29.62,WSW,248,9.0,13.0,46,0.00,,,0.00,Wunderground v.1.15,2013-03-02 01:27:00,
2013-03-01 18:32:00,49.6,29.6,29.62,SW,236,6.0,8.0,46,0.00,,,0.00,Wunderground v.1.15,2013-03-02 01:32:00,
2013-03-01 18:37:00,49.5,29.6,29.63,SSE,167,4.0,8.0,46,0.00,,,0.00,Wunderground v.1.15,2013-03-02 01:37:00,
2013-03-01 18:42:00,48.9,29.0,29.62,West,267,3.0,4.0,46,0.00,,,0.00,Wunderground v.1.15,2013-03-02 01:42:00,
2013-03-01 18:47:00,49.1,29.7,29.62,WSW,239,5.0,10.0,47,0.00,,,0.00,Wunderground v.1.15,2013-03-02 01:47:00,
2013-03-01 18:54:00,48.9,29.5,29.62,SW,218,6.0,6.0,47,0.00,,,0.00,Wunderground v.1.15,2013-03-02 01:54:00,
2013-03-01 19:00:00,48.6,29.3,29.62,SW,218,3.0,3.0,47,0.00,,,0.00,Wunderground v.1.15,2013-03-02 02:00:00,
2013-03-01 19:05:00,48.3,29.0,29.62,SW,218,1.0,3.0,47,0.00,,,0.00,Wunderground v.1.15,2013-03-02 02:05:00,
2013-03-01 19:10:00,47.7,28.4,29.63,SW,218,0.0,0.0,47,0.00,,,0.00,Wunderground v.1.15,2013-03-02 02:10:00,
2013-03-01 19:15:00,46.9,28.7,29.62,SW,218,1.0,3.0,49,0.00,,,0.00,Wunderground v.1.15,2013-03-02 02:15:00,
2013-03-01 19:22:00,46.4,28.8,29.63,SW,218,1.0,3.0,50,0.00,,,0.00,Wunderground v.1.15,2013-03-02 02:22:00,
2013-03-01 19:27:00,45.6,28.0,29.62,SW,218,1.0,4.0,50,0.00,,,0.00,Wunderground v.1.15,2013-03-02 02:27:00,
2013-03-01 19:33:00,44.7,28.1,29.63,SW,218,2.0,5.0,52,0.00,,,0.00,Wunderground v.1.15,2013-03-02 02:33:00,
2013-03-01 19:38:00,44.6,29.0,29.63,SW,218,2.0,5.0,54,0.00,,,0.00,Wunderground v.1.15,2013-03-02 02:38:00,
2013-03-01 19:43:00,45.0,28.9,29.64,SW,218,1.0,3.0,53,0.00,,,0.00,Wunderground v.1.15,2013-03-02 02:43:00,
2013-03-01 19:48:00,45.1,28.5,29.63,SW,218,1.0,3.0,52,0.00,,,0.00,Wunderground v.1.15,2013-03-02 02:48:00,
2013-03-01 19:54:00,44.8,28.7,29.63,SW,218,1.0,2.0,53,0.00,,,0.00,Wunderground v.1.15,2013-03-02 02:54:00,
2013-03-01 20:00:00,45.3,28.7,29.64,SW,218,1.0,2.0,52,0.00,,,0.00,Wunderground v.1.15,2013-03-02 03:00:00,
2013-03-01 20:07:00,45.3,29.2,29.64,SW,218,1.0,2.0,53,0.00,,,0.00,Wunderground v.1.15,2013-03-02 03:07:00,
2013-03-01 20:12:00,45.3,29.2,29.64,SW,218,1.0,2.0,53,0.00,,,0.00,Wunderground v.1.15,2013-03-02 03:12:00,
2013-03-01 20:17:00,45.5,29.3,29.63,NW,304,2.0,4.0,53,0.00,,,0.00,Wunderground v.1.15,2013-03-02 03:17:00,
2013-03-01 20:22:00,46.7,30.0,29.63,WSW,253,5.0,8.0,52,0.00,,,0.00,Wunderground v.1.15,2013-03-02 03:22:00,
2013-03-01 20:28:00,46.9,29.7,29.63,West,266,5.0,8.0,51,0.00,,,0.00,Wunderground v.1.15,2013-03-02 03:28:00,
2013-03-01 20:33:00,47.2,30.0,29.63,West,265,6.0,11.0,51,0.00,,,0.00,Wunderground v.1.15,2013-03-02 03:33:00,
2013-03-01 20:38:00,47.8,30.5,29.64,WSW,244,8.0,11.0,51,0.00,,,0.00,Wunderground v.1.15,2013-03-02 03:38:00,
2013-03-01 20:43:00,48.2,30.4,29.63,SW,227,7.0,8.0,50,0.00,,,0.00,Wunderground v.1.15,2013-03-02 03:43:00,
2013-03-01 20:49:00,48.3,30.5,29.64,West,267,8.0,9.0,50,0.00,,,0.00,Wunderground v.1.15,2013-03-02 03:49:00,
2013-03-01 20:54:00,48.3,30.5,29.64,West,259,9.0,13.0,50,0.00,,,0.00,Wunderground v.1.15,2013-03-02 03:54:00,
2013-03-01 20:59:00,47.5,30.3,29.64,WSW,244,7.0,7.0,51,0.00,,,0.00,Wunderground v.1.15,2013-03-02 03:59:00,
2013-03-01 21:05:00,47.3,30.5,29.64,WSW,240,6.0,8.0,52,0.00,,,0.00,Wunderground v.1.15,2013-03-02 04:05:00,
2013-03-01 21:12:00,47.4,30.6,29.64,SW,223,7.0,7.0,52,0.00,,,0.00,Wunderground v.1.15,2013-03-02 04:12:00,
2013-03-01 21:17:00,47.1,30.8,29.65,SW,218,7.0,7.0,53,0.00,,,0.00,Wunderground v.1.15,2013-03-02 04:17:00,
2013-03-01 21:22:00,46.9,30.6,29.64,SW,224,7.0,7.0,53,0.00,,,0.00,Wunderground v.1.15,2013-03-02 04:22:00,
2013-03-01 21:27:00,46.8,30.6,29.64,SW,222,6.0,9.0,53,0.00,,,0.00,Wunderground v.1.15,2013-03-02 04:27:00,
2013-03-01 21:33:00,46.3,30.5,29.64,SW,215,5.0,6.0,54,0.00,,,0.00,Wunderground v.1.15,2013-03-02 04:33:00,
2013-03-01 21:38:00,46.0,30.7,29.64,SW,219,4.0,8.0,55,0.00,,,0.00,Wunderground v.1.15,2013-03-02 04:38:00,
2013-03-01 21:43:00,46.4,30.6,29.64,West,277,5.0,5.0,54,0.00,,,0.00,Wunderground v.1.15,2013-03-02 04:43:00,
2013-03-01 21:49:00,47.6,30.3,29.64,West,271,7.0,7.0,51,0.00,,,0.00,Wunderground v.1.15,2013-03-02 04:49:00,
2013-03-01 21:55:00,48.9,30.6,29.64,SW,234,9.0,16.0,49,0.00,,,0.00,Wunderground v.1.15,2013-03-02 04:55:00,
2013-03-01 22:00:00,48.8,31.0,29.64,South,176,6.0,7.0,50,0.00,,,0.00,Wunderground v.1.15,2013-03-02 05:00:00,
2013-03-01 22:03:00,48.3,31.0,29.63,SW,217,4.0,8.0,51,0.00,,,0.00,Wunderground v.1.15,2013-03-02 05:03:00,
2013-03-01 22:07:00,47.8,31.0,29.63,WSW,246,5.0,11.0,52,0.00,,,0.00,Wunderground v.1.15,2013-03-02 05:07:00,
2013-03-01 22:08:00,47.7,31.4,29.63,SW,229,6.0,11.0,53,0.00,,,0.00,Wunderground v.1.15,2013-03-02 05:08:00,
2013-03-01 22:13:00,47.6,30.8,29.63,WSW,243,9.0,14.0,52,0.00,,,0.00,Wunderground v.1.15,2013-03-02 05:13:00,
2013-03-01 22:19:00,47.7,31.4,29.63,SW,220,9.0,13.0,53,0.00,,,0.00,Wunderground v.1.15,2013-03-02 05:19:00,
2013-03-01 22:25:00,47.3,31.5,29.63,WSW,241,9.0,14.0,54,0.00,,,0.00,Wunderground v.1.15,2013-03-02 05:25:00,
2013-03-01 22:32:00,47.2,31.4,29.63,SW,227,9.0,14.0,54,0.00,,,0.00,Wunderground v.1.15,2013-03-02 05:32:00,
2013-03-01 22:37:00,47.4,31.6,29.63,SW,215,10.0,14.0,54,0.00,,,0.00,Wunderground v.1.15,2013-03-02 05:37:00,
2013-03-01 22:42:00,47.1,31.3,29.63,SW,236,11.0,15.0,54,0.00,,,0.00,Wunderground v.1.15,2013-03-02 05:42:00,
2013-03-01 22:48:00,47.2,31.4,29.63,WSW,242,12.0,18.0,54,0.00,,,0.00,Wunderground v.1.15,2013-03-02 05:48:00,
2013-03-01 22:53:00,47.5,31.7,29.62,SW,234,14.0,20.0,54,0.00,,,0.00,Wunderground v.1.15,2013-03-02 05:53:00,
2013-03-01 22:59:00,47.8,31.5,29.63,WSW,245,16.0,26.0,53,0.00,,,0.00,Wunderground v.1.15,2013-03-02 05:59:00,
2013-03-01 23:05:00,47.8,31.5,29.64,WSW,256,17.0,26.0,53,0.00,,,0.00,Wunderground v.1.15,2013-03-02 06:05:00,
2013-03-01 23:10:00,47.6,31.3,29.63,WSW,240,15.0,20.0,53,0.00,,,0.00,Wunderground v.1.15,2013-03-02 06:10:00,
2013-03-01 23:15:00,47.6,31.8,29.63,SW,224,14.0,20.0,54,0.00,,,0.00,Wunderground v.1.15,2013-03-02 06:15:00,
2013-03-01 23:22:00,47.6,31.3,29.64,SW,232,15.0,15.0,53,0.00,,,0.00,Wunderground v.1.15,2013-03-02 06:22:00,
2013-03-01 23:28:00,47.6,31.3,29.64,SSW,212,14.0,19.0,53,0.00,,,0.00,Wunderground v.1.15,2013-03-02 06:28:00,
2013-03-01 23:33:00,47.5,31.7,29.65,SW,217,13.0,19.0,54,0.00,,,0.00,Wunderground v.1.15,2013-03-02 06:33:00,
2013-03-01 23:39:00,47.4,31.1,29.64,SSW,206,12.0,19.0,53,0.00,,,0.00,Wunderground v.1.15,2013-03-02 06:39:00,
2013-03-01 23:44:00,47.7,31.4,29.64,WSW,242,11.0,13.0,53,0.00,,,0.00,Wunderground v.1.15,2013-03-02 06:44:00,
2013-03-01 23:49:00,47.9,31.1,29.64,SW,224,13.0,14.0,52,0.00,,,0.00,Wunderground v.1.15,2013-03-02 06:49:00,
2013-03-01 23:54:00,48.3,31.0,29.64,SW,219,15.0,15.0,51,0.00,,,0.00,Wunderground v.1.15,2013-03-02 06:54:00,
2013-03-01 23:59:00,48.1,30.8,29.64,SW,222,14.0,14.0,51,0.00,,,0.00,Wunderground v.1.15,2013-03-02 06:59:00,